TIANWANG 1B (TW-1B)
1 40927U 15051C   19049.50000935  .00008160  00000-0  13843-3 0  9996
2 40927  97.1570  95.5267 0010867 103.4836   4.2001 15.51690756191366
TIANWANG 1A (TW-1A)
1 40928U 15051D   19049.44855623  .00002907  00000-0  74712-4 0  9998
2 40928  97.1602  83.3777 0012407 142.1288 325.1872 15.40007037190662
LAPAN A2
1 40931U 15052B   19046.96031485  .00000625  00000-0 -19982-5 0  9994
2 40931   5.9964 211.7987 0012497 217.2601 142.6839 14.76597395183099
LQSAT
1 40958U 15057A   19049.40208156 -.00000010  00000-0  61587-5 0  9997
2 40958  97.9127 121.7667 0016738 268.1452  91.7838 14.73066885181099
CHUBUSAT 2
1 41338U 16012B   19049.52213243  .00000301  00000-0  16732-4 0  9991
2 41338  31.0022 188.4303 0013918 352.2958   7.7462 15.00095650164853
CHUBUSAT 3
1 41339U 16012C   19049.50582625  .00000288  00000-0  15631-4 0  9994
2 41339  31.0092 186.7902 0013707 359.6104   0.4535 15.00275026164844
OUFTI-1
1 41458U 16025C   19049.16405281  .00001813  00000-0  96059-4 0  9992
2 41458  98.1093 129.8938 0168695  42.4890 318.9268 15.05423222154447
E-STAR-2
1 41459U 16025D   19049.21958876  .00001427  00000-0  76983-4 0  9997
2 41459  98.1104 129.6825 0169842  43.5254 317.9231 15.05097186154428
AAUSAT 4
1 41460U 16025E   19049.27250760  .00001615  00000-0  85242-4 0  9999
2 41460  98.1027 130.6980 0160035  37.1848 324.0358 15.06820932154536
NUSAT 1
1 41557U 16033B   19049.53820547  .00001076  00000-0  43451-4 0  9997
2 41557  97.4227 137.7530 0014057   9.3831 350.7667 15.26881615151758
BEESAT 4
1 41619U 16040W   19049.14498704  .00001093  00000-0  49712-4 0  9992
2 41619  97.3839 113.5399 0013141  88.3598 271.9144 15.22778983135519
PRATHAM
1 41783U 16059A   19048.81519798  .00000031  00000-0  15276-4 0  9993
2 41783  98.0849 110.9649 0034447  45.8537 314.5488 14.62973082127877
ALSAT 1N
1 41789U 16059G   19049.11168627  .00000054  00000-0  19226-4 0  9998
2 41789  98.0868 112.9910 0029147  36.1020 324.2147 14.64216629128003
NAYIF 1
1 42017U 17008BX  19049.18777655  .00001215  00000-0  51332-4 0  9996
2 42017  97.4182 117.4627 0005123 222.6133 137.4708 15.25150130111551
LILACSAT-1
1 42725U 98067ME  19049.57293850  .00137960  18537-4  36416-3 0  9999
2 42725  51.6298 164.8697 0003768   4.5345  88.2025 15.94470204 99435
MAX VALIER SAT
1 42778U 17036P   19048.74603153 +.00000703 +00000-0 +33999-4 0  9993
2 42778 097.3716 108.9850 0010855 291.3300 068.6777 15.21770004091841
